Showing default

GONETS D1 1, 23787

Orbit data source: Space-Track

GONETS D1 1, 23787 is a payload satellite owned by Gonets (CIS) in LEO that was launched on Mon, 19 Feb 1996 UTC via a TSIKLON-3 launch vehicle from the Plesetsk Missile And Space Complex (PKMTR). Payload-class satellites include a variety of spacecraft equipped with specific instruments for various scientific and technological missions. These include communications satellites like Starlink; space stations such as the ISS; scientific satellites like the Hubble; Earth observation satellites from companies like Planet Labs, Umbra, and HawkEye 360; GPS; miniature CubeSats for education and research; and military/defense satellites.

Loading next visibility...
Identifier
23787, 1996-009A
Orbit
LEO
Country
Flag of CISCIS
Related business
Manufacturer
NPO PM
Mission
Non-operational Civil Communications
Bus & Motor
STRELA-3, Unknown motor
Mass
225 kg wet, 225 kg dry
Launch date (UTC)
1996-02-19 (30 years ago)
Launch vehicle
TSIKLON-3
Launch site
Plesetsk Missile And Space Complex (PKMTR)
Object type
Payload
Rocket body
Debris
Shape & HBR
Cyl + 1 Ant, 3.5 m
Radar Cross Section
1.798 m², Medium (>0.1 m² and < 1m²)

Expand to show TLE details & history
Last TLE update: 7 hours ago

TLE from 7 hours ago
0 GONETS D1 1
1 23787U 96009A   25355.20966818  .00000037  00000-0  14468-3 0  9997
2 23787  82.5770  52.8710 0012275  88.6866 326.7606 12.64102055376822
Epoch: 2025-12-21T05:01Z
TLE epoch observation values (Epoch: 2025-12-21T05:01:55.330Z)
Latitude
54.7727°
Longitude
-102.05585°
Altitude
1,407.06 km
Speed
7.165 km/s
True Right ascension
04h 13m 48s
True Declination
54° 37' 27"
Sunlit
Object was in full shadow at epoch
Visualization orbit readout
Latitude
Unknown
Longitude
Unknown
Altitude
Unknown
Speed
Unknown
Apparent Right ascension
Unknown
Apparent Declination
Unknown
Sunlit
N/A
Visualization observer readout
Local Sidereal Time
11:12:30
Azimuth
Unknown
Elevation
Unknown
Doppler factor
Unknown
Orbital elements
Apogee altitude
1,412.929 km
Perigee altitude
1,393.825 km
Semi-major axis
7,781.514 km
Eccentricity
0.00123
Inclination
82.577°
RAAN
52.871°
Arg. of periapsis
88.6866°
True anomaly
326.6834°
Mean anomaly
326.7606°
Eccentric anomaly
326.72201°
Mean motion
3.16189 °/min
Orbital period
113.86 mins
BSTAR
0.00014468
Loading maneuver chart data...
Computing Atmospheric mass density...
Loading historical data...
Loading historical data...
Loading historical data...
Loading historical data...
Loading historical data...
Loading historical data...
Loading historical data...

Documentation

Showing up to 5 results
|